Weather Roundup
Issued by NWS

Home | Current Version | Previous Version | Text Only | Print | Product List | Glossary On
Versions: 1 2 3 4 5 6 7 8 9 10 11 12 13 14 15 16 17 18 19 20 21 22 23 24 25 26 27 28 29 30 31 32 33 34 35 36 37 38 39 40 41 42 43 44 45 46 47 48 49 50
357
NZUS93 KARX 231159
HRRWXR

CURRENT HOURLY OBSERVATIONS ACROSS
MUCH OF THE UPPER MISSISSIPPI VALLEY
NATIONAL WEATHER SERVICE LA CROSSE WI
700 AM CDT SAT JUL 23 2016


...SOUTHEAST MINNESOTA...


CITY           SKY/WX    TMP DP  RH WIND       PRES   REMARKS
ROCHESTER      MOSUNNY   77  76  96 E8        29.96F FOG
ROCHESTER/MAYO PTSUNNY   76  76 100 E7        29.95F
WINONA         CLOUDY    73  72  94 SE5       29.96F
AUSTIN         MOSUNNY   75  73  94 E6        29.92F FOG
ALBERT LEA     CLOUDY    77  75  94 E7        29.92F FOG
DODGE CENTER   MOSUNNY   75  75 100 E7        29.95F FOG
PRESTON        FOG       76  74  94 E3        29.97F VSB 1/2
OWATONNA       MOSUNNY   79  75  89 E7        29.92F
FARIBAULT      MOSUNNY   75  73  94 E5        29.92F
$$

...ELSEWHERE IN MINNESOTA...


CITY           SKY/WX    TMP DP  RH WIND       PRES   REMARKS
MINNEAPOLIS    CLOUDY    77  69  76 SE9       29.94F
INTNL FALLS    CLOUDY    61  60  97 SE5       29.97F
DULUTH         SUNNY     67  59  75 E3        30.00F
RED WING       CLOUDY    72  70  94 E3        29.93F
REDWOOD FALLS  CLOUDY    75  73  93 E6        29.87R
MANKATO        PTCLDY    79  73  83 E12       29.89F
WORTHINGTON    CLOUDY    78  76  93 SE5       29.89R
FAIRMONT       CLOUDY    77  73  88 SE12      29.87F
$$

...SOUTHWEST WISCONSIN...


CITY           SKY/WX    TMP DP  RH WIND       PRES   REMARKS
LA CROSSE      CLOUDY    75  73  93 E6        29.96S FOG
PRAIRIE DU CHI MOSUNNY   76  74  93 SE3       29.96S
BOSCOBEL       FOG       77  76  96 CALM      29.96F VSB 1/4
LONE ROCK      FOG       75  74  96 CALM      29.98F VSB 1/4
PLATTEVILLE    PTSUNNY   77  77 100 SE3       30.00S
FORT MC COY    MOSUNNY   64  64 100 CALM      29.99S
CAMP DOUGLAS   FOG       66  64  94 CALM      29.99S VSB 1/4
MAUSTON-NEW LI FOG       67  67 100 CALM      29.98F VSB<1/4
VIROQUA        PTSUNNY   76  76 100 SE3       30.00F
WIS DELLS      NOT AVBL
$$

...ELSEWHERE IN WISCONSIN...


CITY           SKY/WX    TMP DP  RH WIND       PRES   REMARKS
MILWAUKEE      MOSUNNY   80  75  84 CALM      29.98F
MADISON        PTSUNNY   76  75  97 CALM      29.98S FOG
GREEN BAY      SUNNY     72  70  93 CALM      29.98F
EAU CLAIRE     NOT AVBL
BLACK RVR FLS  FAIR      63  63 100 CALM      29.98S
MEDFORD        MOSUNNY   65  65 100 E3        30.02S
WAUSAU         CLOUDY    69  67  93 CALM      30.00S
WIS RAPIDS     SUNNY     71  67  87 CALM      30.01F
MARSHFIELD     SUNNY     70  66  87 E3        30.01S
RICE LAKE      SUNNY     65  64  96 CALM      30.01F
$$

...NORTHEAST IOWA...


CITY           SKY/WX    TMP DP  RH WIND       PRES   REMARKS
WATERLOO       CLOUDY    77  75  93 SE8       29.93F
DUBUQUE        CLOUDY    77  76  96 MISG      29.99F
DECORAH        PTSUNNY   77  77 100 SE5       29.95F FOG
MASON CITY     PTSUNNY   77  76  96 SE7       29.94S
CHARLES CITY   CLOUDY    77  77 100 E7        29.94F
OELWEIN        PTSUNNY   77  77 100 SE7       29.96F
$$

...ELSEWHERE IN IOWA...


CITY           SKY/WX    TMP DP  RH WIND       PRES   REMARKS
DES MOINES     CLOUDY    80  76  87 S8        29.89F
IOWA CITY      CLOUDY    77  76  96 SE5       29.96F
FORT DODGE     CLOUDY    77  75  94 SE5       29.92R
MARSHALLTOWN   CLOUDY    77  76  96 E8        29.93R
CEDAR RAPIDS   CLOUDY    76  76 100 SE6       29.95S FOG
$$

...NORTHERN ILLINOIS...


CITY           SKY/WX    TMP DP  RH WIND       PRES   REMARKS
CHICAGO-OHARE  PTSUNNY   80  75  84 NW5       29.99R
CHICAGO-MIDWAY PTSUNNY   81  75  82 W5        29.99R
MOLINE         SUNNY     78  74  87 E3        29.97R
ROCKFORD       MOSUNNY   76  74  93 S3        30.00F
PEORIA         MOSUNNY   77  76  96 S6        29.99S
$$

NOTE: "FAIR" INDICATES FEW OR NO CLOUDS BELOW 12,000 FEET WITH NO
SIGNIFICANT WEATHER AND/OR OBSTRUCTIONS TO VISIBILITY. WIND
SPEEDS ARE IN MILES-PER-HOUR.




USA.gov is the U.S. government's official web portal to all federal, state and local government web resources and services.